[[{"header":{"parameterUnit":"m.s-1","parameterCategory":1,"la1":30.2991,"la2":30.254,"lo1":-89.0895,"lo2":-89.0444,"dy":0.0017,"dx":0.0017,"nx":28,"ny":28,"refTime":"2025-03-22T21:00:00:Z","depth":0,"parameterNumber":2,"parameterNumberName":"U-component_of_WINDS"},"data":[0,0,0,0,0,0,0,0,0,0,0,0,0,0,0,0,0,0,0,0,0,0,0,0,0,0,0,0,0,0,0,0,0,0,0,0,0,0,0,0,0,0,0,0,0,0,0,0,0,0,0,0,0,0,0,0,0,0,-0.1756,-0.1756,0,-0.1771,-0.1771,-0.1771,-0.1771,-0.1771,-0.177,-0.177,-0.1787,-0.1788,-0.1788,0,0,0,0,0,0,0,0,0,0,0,0,0,-0.1729,-0.1729,-0.1756,-0.1756,-0.1756,-0.1771,-0.1771,-0.1771,-0.1771,-0.177,-0.177,-0.177,-0.1787,-0.1788,-0.1788,0,0,0,0,0,0,0,0,0,0,0,0,0,-0.1742,-0.1729,-0.1756,-0.1758,-0.1758,-0.1771,-0.1771,-0.1771,-0.1771,-0.177,-0.177,-0.177,-0.1787,-0.1787,-0.1788,-0.18,0,0,-0.1791,-0.1792,0,0,0,0,0,0,0,0,-0.1741,-0.1743,-0.1757,-0.1758,-0.1758,-0.1768,-0.1767,-0.1781,-0.1771,-0.1766,-0.177,-0.177,-0.1781,-0.1783,-0.1786,-0.1801,-0.1802,-0.1791,-0.1792,-0.1792,-0.1793,0,0,0,0,0,0,0,-0.174,-0.1742,-0.1762,-0.1757,-0.1758,-0.1758,-0.176,-0.177,-0.1775,-0.1766,-0.1766,-0.1768,-0.1781,-0.1785,-0.1786,-0.1802,-0.1791,-0.1792,-0.1793,-0.1793,-0.1829,-0.1829,0,0,0,0,0,0,-0.1739,-0.1741,-0.1761,-0.1762,-0.1749,-0.1759,-0.1761,-0.1765,-0.1775,-0.1776,-0.1768,-0.1768,-0.1784,-0.1785,-0.1787,-0.1802,-0.1792,-0.1793,-0.1794,-0.1829,-0.1829,-0.1829,0,0,0,0,0,0,-0.1738,-0.174,-0.1761,-0.1752,-0.1754,-0.176,-0.1765,-0.1766,-0.177,-0.1776,-0.1778,-0.1771,-0.1783,-0.1786,-0.1797,-0.1803,-0.1794,-0.1795,-0.1828,-0.1829,-0.1829,-0.1833,0,0,0,0,0,0,-0.1737,-0.174,-0.1744,-0.1752,-0.1755,-0.177,-0.1765,-0.1766,-0.1771,-0.1771,-0.1779,-0.1781,-0.1783,-0.1796,-0.1798,-0.1804,-0.1795,-0.1828,-0.1828,-0.1829,-0.1832,-0.1834,-0.1835,0,0,0,0,0,-0.1736,-0.1745,-0.1745,-0.1747,-0.176,-0.177,-0.1772,-0.1775,-0.1772,-0.1776,-0.1781,-0.178,-0.1802,-0.1797,-0.18,-0.1806,-0.1827,-0.1828,-0.1829,-0.1832,-0.1833,-0.1835,0,0,0,0,0,0,-0.1739,-0.1746,-0.1746,-0.1757,-0.1763,-0.177,-0.1776,-0.1776,-0.1783,-0.1783,-0.1786,-0.1788,-0.18,-0.1804,-0.1798,-0.1819,-0.1814,-0.1816,-0.1816,-0.1817,-0.1818,-0.1817,-0.1796,0,0,0,0,0,-0.174,-0.1747,-0.1754,-0.1763,-0.1766,-0.1771,-0.1775,-0.1776,-0.1783,-0.1786,-0.1791,-0.1798,-0.1806,-0.1812,-0.182,-0.1833,-0.1835,-0.1838,-0.184,-0.184,-0.1842,-0.185,-0.1852,-0.1832,-0.1832,-0.1832,0,0,-0.1744,-0.1749,-0.1754,-0.1764,-0.1769,-0.1776,-0.1773,-0.1781,-0.1787,-0.1787,-0.1798,-0.1803,-0.181,-0.1823,-0.1829,-0.1827,-0.1848,-0.1842,-0.1842,-0.1843,-0.1851,-0.1853,-0.1855,-0.1833,-0.1833,-0.1832,0,0,-0.1756,-0.176,-0.1768,-0.1773,-0.178,-0.1783,-0.1785,-0.1792,-0.1795,-0.1806,-0.1806,-0.1814,-0.1828,-0.1834,-0.1839,-0.1852,-0.1853,-0.1855,-0.1861,-0.1869,-0.187,-0.1872,-0.1878,-0.188,-0.1856,-0.1856,-0.1856,0,-0.176,-0.1771,-0.1773,-0.1781,-0.1786,-0.1786,-0.1795,-0.18,-0.1809,-0.1813,-0.181,-0.1829,-0.1834,-0.1848,-0.1851,-0.1855,-0.1858,-0.1854,-0.187,-0.1871,-0.1873,-0.1878,-0.188,-0.1856,-0.1856,-0.1856,-0.1856,0,-0.1776,-0.1784,-0.179,-0.1799,-0.1805,-0.1813,-0.1817,-0.1823,-0.1823,-0.1827,-0.1839,-0.1845,-0.1854,-0.1858,-0.1859,-0.1872,-0.1871,-0.1869,-0.1865,-0.1875,-0.188,-0.1882,-0.1857,-0.1857,-0.1857,-0.1857,0,0,-0.179,-0.1799,-0.1802,-0.1806,-0.1814,-0.1821,-0.183,-0.1838,-0.1843,-0.185,-0.1858,-0.187,-0.1869,-0.1874,-0.1876,-0.1883,-0.1894,-0.188,-0.188,-0.1883,-0.191,-0.1912,-0.1915,-0.1894,-0.1894,-0.1895,-0.191,0,-0.1803,-0.1818,-0.182,-0.1834,-0.1842,-0.1842,-0.185,-0.1856,-0.1859,-0.1867,-0.1871,-0.188,-0.1876,-0.188,-0.1886,-0.1891,-0.19,-0.189,-0.1903,-0.1903,-0.1901,-0.1917,-0.1919,-0.1933,-0.1912,-0.1912,-0.1912,0,-0.182,-0.1826,-0.1841,-0.1849,-0.1852,-0.1859,-0.1868,-0.1875,-0.1882,-0.1884,-0.189,-0.1891,-0.1901,-0.1896,-0.191,-0.1904,-0.1909,-0.1912,-0.1913,-0.1915,-0.1909,-0.1921,-0.1938,-0.194,-0.1916,-0.1915,-0.1915,0,-0.1829,-0.1842,-0.1853,-0.1856,-0.1865,-0.187,-0.1874,-0.1881,-0.1886,-0.1894,-0.1897,-0.1906,-0.1911,-0.1918,-0.1922,-0.1918,-0.1937,-0.1931,-0.1939,-0.1939,-0.1944,-0.1944,-0.1963,-0.1946,-0.1946,-0.1946,-0.1946,0,-0.1844,-0.1853,-0.1857,-0.1864,-0.1875,-0.1877,-0.1888,-0.1891,-0.1897,-0.1905,-0.1906,-0.1913,-0.1917,-0.1925,-0.1928,-0.194,-0.1942,-0.1945,-0.1946,-0.1946,-0.1945,-0.195,-0.1949,-0.1946,-0.1946,-0.1946,-0.1946,0,-0.1857,-0.186,-0.1871,-0.1878,-0.188,-0.1888,-0.1894,-0.1901,-0.1904,-0.1915,-0.1917,-0.1922,-0.1932,-0.1936,-0.1949,-0.195,-0.1965,-0.1964,-0.1962,-0.1963,-0.1971,-0.197,-0.1995,-0.1998,-0.1977,-0.1978,-0.1978,0,-0.1866,-0.1873,-0.1881,-0.1886,-0.189,-0.1898,-0.1904,-0.1906,-0.1912,-0.1921,-0.1927,-0.1937,-0.1945,-0.1961,-0.1966,-0.1976,-0.1976,-0.1984,-0.1978,-0.1977,-0.1977,-0.1977,-0.1978,-0.1985,-0.1986,-0.1986,-0.1986,0,-0.1883,-0.1884,-0.1892,-0.19,-0.1907,-0.1913,-0.192,-0.1924,-0.1928,-0.1934,-0.1944,-0.195,-0.1963,-0.1973,-0.1983,-0.1987,-0.1988,-0.1988,-0.199,-0.199,-0.1989,-0.1991,-0.1967,-0.1987,-0.1987,-0.1987,-0.1987,-0.1987,-0.1895,-0.1902,-0.1909,-0.1917,-0.1922,-0.1928,-0.1935,-0.1939,-0.1947,-0.1957,-0.1958,-0.1969,-0.1977,-0.199,-0.1995,-0.2004,-0.2002,-0.2006,-0.2007,-0.2008,-0.2009,-0.1987,-0.2006,-0.2006,-0.2006,-0.2006,-0.2006,0,-0.1913,-0.1917,-0.1925,-0.1934,-0.1941,-0.194,-0.1947,-0.1953,-0.1963,-0.1969,-0.1977,-0.1989,-0.1999,-0.2005,-0.2015,-0.2021,-0.2021,-0.2024,-0.2024,-0.2025,-0.2009,-0.2007,-0.2023,-0.2023,-0.2023,-0.2023,-0.2023,-0.2023,-0.1924,-0.1935,-0.1937,-0.1951,-0.1955,-0.1966,-0.197,-0.1976,-0.1981,-0.1994,-0.2002,-0.2006,-0.2012,-0.2023,-0.2032,-0.2034,-0.2038,-0.204,-0.2042,-0.2028,-0.2026,-0.2024,-0.2022,-0.2041,-0.2041,-0.2057,-0.2057,-0.2057]},{"header":{"parameterUnit":"m.s-1","parameterCategory":1,"la1":30.2991,"la2":30.254,"lo1":-89.0895,"lo2":-89.0444,"dy":0.0017,"dx":0.0017,"nx":28,"ny":28,"refTime":"2025-03-22T21:00:00:Z","depth":0,"parameterNumber":3,"parameterNumberName":"V-component_of_WINDS"},"data":[0,0,0,0,0,0,0,0,0,0,0,0,0,0,0,0,0,0,0,0,0,0,0,0,0,0,0,0,0,0,0,0,0,0,0,0,0,0,0,0,0,0,0,0,0,0,0,0,0,0,0,0,0,0,0,0,0,0,2.8549,2.855,0,2.8638,2.8639,2.864,2.8634,2.8632,2.8631,2.863,2.8718,2.8721,2.8725,0,0,0,0,0,0,0,0,0,0,0,0,0,2.8368,2.8371,2.8548,2.855,2.8551,2.8638,2.8639,2.8641,2.8634,2.8632,2.8631,2.8629,2.8717,2.8721,2.8725,0,0,0,0,0,0,0,0,0,0,0,0,0,2.8451,2.8372,2.8548,2.8558,2.856,2.8638,2.8639,2.8641,2.8634,2.8632,2.863,2.8628,2.8715,2.8721,2.8726,2.8799,0,0,2.8742,2.8745,0,0,0,0,0,0,0,0,2.8446,2.8457,2.8556,2.8558,2.856,2.8623,2.8608,2.8694,2.8635,2.8606,2.863,2.8628,2.8688,2.8695,2.8716,2.8803,2.8807,2.8743,2.8746,2.8748,2.875,0,0,0,0,0,0,0,2.844,2.8453,2.8584,2.8557,2.856,2.8557,2.8566,2.8624,2.8657,2.8608,2.8608,2.8619,2.8688,2.8711,2.8718,2.8808,2.8743,2.8747,2.8751,2.8753,2.8959,2.8961,0,0,0,0,0,0,2.8433,2.8449,2.8581,2.8587,2.8497,2.8562,2.8572,2.8605,2.8656,2.8662,2.8621,2.8618,2.8703,2.8712,2.8721,2.881,2.8748,2.8753,2.8756,2.8956,2.8959,2.8962,0,0,0,0,0,0,2.8429,2.8445,2.8577,2.8518,2.8534,2.8567,2.8603,2.8607,2.863,2.8665,2.8671,2.8638,2.8702,2.8714,2.878,2.8813,2.8756,2.8761,2.8954,2.8957,2.896,2.8987,0,0,0,0,0,0,2.8424,2.8443,2.8472,2.8518,2.8538,2.8635,2.8605,2.8611,2.864,2.8638,2.8683,2.8689,2.8701,2.8772,2.8785,2.8819,2.8765,2.8951,2.8955,2.8959,2.8983,2.8991,2.8997,0,0,0,0,0,2.8417,2.8475,2.8474,2.849,2.8575,2.8637,2.8648,2.8662,2.8643,2.8671,2.8694,2.8687,2.8807,2.8779,2.8794,2.8829,2.8949,2.8954,2.8959,2.898,2.8989,2.8997,0,0,0,0,0,0,2.8431,2.8482,2.848,2.8555,2.8592,2.8636,2.8673,2.8672,2.8714,2.871,2.8724,2.8735,2.8801,2.8822,2.8789,2.8903,2.8875,2.8884,2.8886,2.8895,2.8902,2.8895,2.8769,0,0,0,0,0,2.8443,2.8491,2.8532,2.8594,2.8613,2.864,2.8668,2.8675,2.8714,2.8729,2.8756,2.8793,2.8839,2.8868,2.8913,2.8987,2.8996,2.9019,2.9026,2.9032,2.9038,2.9078,2.9089,2.8978,2.8978,2.8978,0,0,2.8467,2.8501,2.853,2.8598,2.8627,2.8675,2.8653,2.8705,2.874,2.8736,2.88,2.8822,2.8864,2.8934,2.8966,2.8954,2.9071,2.9038,2.9042,2.9046,2.9085,2.9095,2.9104,2.8982,2.8981,2.898,0,0,2.8536,2.8567,2.8622,2.8652,2.8698,2.8716,2.8729,2.8773,2.8788,2.8853,2.8851,2.8893,2.8972,2.9002,2.9027,2.9108,2.9103,2.9122,2.9158,2.9197,2.9206,2.9214,2.9242,2.9252,2.9129,2.9129,2.9129,0,2.856,2.8634,2.865,2.8703,2.8732,2.8732,2.8787,2.8816,2.8873,2.8892,2.8878,2.8977,2.9005,2.9082,2.9102,2.9123,2.9138,2.9116,2.9204,2.9212,2.9219,2.9246,2.9257,2.9131,2.9131,2.9131,2.913,0,2.8661,2.8712,2.8751,2.8807,2.8841,2.8895,2.8918,2.895,2.8955,2.8974,2.904,2.9074,2.9125,2.9144,2.9149,2.9222,2.9212,2.9201,2.9173,2.9231,2.9257,2.9267,2.9134,2.9133,2.9132,2.9132,0,0,2.874,2.8805,2.8819,2.8844,2.8895,2.8934,2.8988,2.9039,2.9066,2.9105,2.915,2.9217,2.9207,2.9236,2.9244,2.9279,2.934,2.9263,2.9264,2.9275,2.9421,2.9429,2.9441,2.9338,2.934,2.9342,2.9418,0,2.8813,2.8909,2.8925,2.9008,2.9055,2.9056,2.9102,2.9138,2.9157,2.9199,2.922,2.9267,2.9251,2.9268,2.9302,2.9325,2.9369,2.932,2.9378,2.938,2.9366,2.9454,2.9462,2.9532,2.9428,2.9429,2.9431,0,2.8911,2.8954,2.9043,2.9087,2.9107,2.9149,2.9197,2.9237,2.9277,2.9289,2.9322,2.9326,2.9381,2.9352,2.9427,2.9393,2.9418,2.9433,2.9436,2.944,2.9408,2.946,2.9555,2.9565,2.9447,2.9445,2.9444,0,2.8958,2.9039,2.9102,2.9124,2.9177,2.9206,2.923,2.9268,2.9298,2.934,2.9359,2.9407,2.9432,2.9468,2.9485,2.9463,2.9559,2.9532,2.9569,2.9568,2.9587,2.9586,2.9686,2.9606,2.9605,2.9605,2.9605,0,2.9038,2.9091,2.9124,2.9162,2.9222,2.924,2.9298,2.9321,2.9355,2.9398,2.9402,2.9441,2.9462,2.9504,2.9518,2.9577,2.9589,2.9599,2.9602,2.9598,2.9597,2.9613,2.9609,2.9608,2.9607,2.9607,2.9606,0,2.91,2.9124,2.9192,2.9238,2.9251,2.9293,2.9331,2.9368,2.9388,2.9442,2.9455,2.9486,2.9536,2.9557,2.9618,2.9627,2.9695,2.9695,2.9682,2.9682,2.9718,2.9714,2.9832,2.9848,2.9757,2.9758,2.9759,0,2.9148,2.919,2.924,2.9269,2.9294,2.9341,2.9372,2.9391,2.9422,2.9472,2.9503,2.9553,2.9594,2.9674,2.9701,2.9748,2.9748,2.9787,2.9755,2.975,2.9748,2.9744,2.9748,2.9792,2.9792,2.9793,2.9794,0,2.9231,2.9241,2.9286,2.9335,2.9372,2.9411,2.9449,2.9473,2.9498,2.9533,2.9585,2.9617,2.968,2.973,2.9779,2.9802,2.9802,2.9804,2.9815,2.9811,2.9801,2.9806,2.9696,2.9801,2.98,2.9799,2.9799,2.9799,2.9287,2.9324,2.9365,2.9415,2.9446,2.9482,2.9519,2.9544,2.9588,2.9641,2.965,2.9705,2.9744,2.981,2.9835,2.9878,2.9868,2.9884,2.9888,2.9891,2.9893,2.9795,2.9887,2.9887,2.9887,2.9887,2.9887,0,2.937,2.9397,2.9442,2.9496,2.9535,2.9533,2.9575,2.9608,2.9657,2.9694,2.9735,2.9794,2.9843,2.9874,2.9923,2.9951,2.9952,2.9963,2.9961,2.9966,2.99,2.9885,2.9961,2.9961,2.9961,2.9961,2.9961,2.9961,2.9417,2.9479,2.9494,2.9571,2.9597,2.9652,2.9677,2.9709,2.9739,2.9806,2.9846,2.9867,2.9902,2.9953,2.9997,3.0005,3.0023,3.0034,3.0041,2.9978,2.997,2.9963,2.9949,3.0038,3.0038,3.0104,3.0104,3.0105]}]]